Location: Fatehalanka
(16.3139°N, 80.8379°E)
Time: 10:58:26
(UTC+00:00)

Meteor 2-3 Rocket - Pass Details

Date: 14 May 2026
Orbit: 846 x 879 km, 81.2° (Epoch: 6 June)

Event Time Altitude Azimuth Distance (km) Brightness Sun altitude
Rises 14:00:42 0° 9° (N) 3,420 7.1 -14.4°
Reaches altitude 10° 14:03:23 10° 20° (NNE) 2,488 6.2 -15.0°
Maximum altitude 14:08:22 32° 82° (E) 1,438 4.5 -16.1°
Enters shadow 14:10:18 26° 117° (ESE) 1,642 4.6 -16.5°
